�������l�o���
Date,Time,MP-1(��Sv/h),MP-2(��Sv/h),MP-3(��Sv/h),MP-4(��Sv/h),MP-5(��Sv/h),MP-6(��Sv/h),MP-7(��Sv/h),MP-8(��Sv/h),����,����(m/s),���J
2022/09/22,00:00,0.569,0.811,0.523,1.016,0.718,0.335,0.586,0.550,�k�k��,7.0,��
2022/09/22,00:10,0.566,0.808,0.522,1.016,0.716,0.334,0.588,0.551,�k�k��,7.0,��
2022/09/22,00:20,0.568,0.810,0.523,1.015,0.716,0.333,0.586,0.550,�k�k��,6.7,��
2022/09/22,00:30,0.567,0.809,0.522,1.014,0.715,0.334,0.584,0.551,�k�k��,7.4,��
2022/09/22,00:40,0.566,0.809,0.523,1.016,0.715,0.335,0.587,0.551,�k�k��,7.4,��
2022/09/22,00:50,0.568,0.810,0.521,1.015,0.716,0.333,0.586,0.550,�k�k��,7.1,��
2022/09/22,01:00,0.569,0.810,0.524,1.016,0.716,0.334,0.586,0.551,�k�k��,7.1,��
2022/09/22,01:10,0.568,0.810,0.523,1.013,0.717,0.333,0.584,0.551,�k�k��,6.3,��
2022/09/22,01:20,0.567,0.810,0.524,1.015,0.715,0.334,0.585,0.552,�k�k��,7.1,��
2022/09/22,01:30,0.568,0.810,0.523,1.016,0.717,0.334,0.584,0.551,�k�k��,6.3,��
2022/09/22,01:40,0.569,0.810,0.521,1.017,0.715,0.334,0.585,0.552,�k�k��,6.4,��
2022/09/22,01:50,0.568,0.809,0.524,1.016,0.717,0.335,0.585,0.551,�k�k��,6.6,��
2022/09/22,02:00,0.567,0.807,0.523,1.017,0.716,0.333,0.585,0.550,�k�k��,7.0,��
2022/09/22,02:10,0.568,0.810,0.524,1.014,0.717,0.333,0.584,0.551,�k�k��,7.1,��
2022/09/22,02:20,0.568,0.809,0.524,1.015,0.716,0.334,0.585,0.551,�k�k��,6.5,��
2022/09/22,02:30,0.568,0.811,0.523,1.016,0.716,0.334,0.585,0.551,�k�k��,6.4,��
2022/09/22,02:40,0.569,0.810,0.526,1.015,0.717,0.335,0.584,0.552,�k�k��,7.0,��
2022/09/22,02:50,0.567,0.810,0.522,1.015,0.717,0.335,0.586,0.551,�k�k��,7.4,��
2022/09/22,03:00,0.568,0.809,0.523,1.015,0.716,0.336,0.585,0.551,�k�k��,7.7,��
2022/09/22,03:10,0.567,0.809,0.523,1.012,0.719,0.334,0.584,0.551,�k�k��,7.5,��
2022/09/22,03:20,0.569,0.810,0.522,1.017,0.717,0.335,0.585,0.551,�k�k��,6.7,��
2022/09/22,03:30,0.569,0.809,0.523,1.018,0.717,0.335,0.585,0.550,�k�k��,7.8,��
2022/09/22,03:40,0.569,0.811,0.523,1.015,0.718,0.334,0.584,0.551,�k�k��,7.6,��
2022/09/22,03:50,0.567,0.808,0.523,1.016,0.718,0.337,0.584,0.553,�k�k��,7.0,��
2022/09/22,04:00,0.568,0.810,0.525,1.017,0.717,0.334,0.585,0.551,�k�k��,8.1,��
2022/09/22,04:10,0.568,0.809,0.523,1.014,0.718,0.334,0.584,0.552,�k�k��,6.9,��
2022/09/22,04:20,0.569,0.811,0.524,1.017,0.717,0.334,0.584,0.550,�k�k��,8.0,��
2022/09/22,04:30,0.567,0.811,0.523,1.017,0.718,0.334,0.584,0.552,�k�k��,6.7,��
2022/09/22,04:40,0.568,0.809,0.523,1.014,0.719,0.334,0.586,0.550,�k�k��,7.5,��
2022/09/22,04:50,0.568,0.810,0.525,1.016,0.721,0.333,0.583,0.553,�k�k��,6.9,��
2022/09/22,05:00,0.568,0.809,0.523,1.015,0.718,0.334,0.584,0.550,�k�k��,7.8,��
2022/09/22,05:10,0.567,0.808,0.525,1.014,0.716,0.332,0.584,0.552,�k�k��,7.5,��
2022/09/22,05:20,0.567,0.810,0.525,1.015,0.718,0.333,0.584,0.553,�k�k��,7.8,��
2022/09/22,05:30,0.568,0.809,0.524,1.015,0.719,0.334,0.583,0.552,�k�k��,7.4,��
2022/09/22,05:40,0.569,0.810,0.523,1.018,0.718,0.333,0.583,0.553,�k�k��,7.5,��
2022/09/22,05:50,0.568,0.811,0.524,1.015,0.718,0.335,0.583,0.551,�k�k��,7.0,��
2022/09/22,06:00,0.568,0.812,0.525,1.014,0.717,0.334,0.583,0.553,�k�k��,6.7,��
2022/09/22,06:10,0.569,0.810,0.523,1.016,0.721,0.334,0.584,0.551,�k�k��,6.2,��
2022/09/22,06:20,0.569,0.808,0.523,1.016,0.719,0.332,0.583,0.552,�k�k��,6.3,��
2022/09/22,06:30,0.568,0.811,0.524,1.016,0.718,0.335,0.584,0.551,�k�k��,6.9,��
2022/09/22,06:40,0.570,0.811,0.525,1.015,0.717,0.334,0.584,0.552,�k�k��,7.4,��
2022/09/22,06:50,0.568,0.811,0.525,1.013,0.718,0.334,0.583,0.553,�k�k��,7.6,��
2022/09/22,07:00,0.570,0.810,0.526,1.016,0.719,0.334,0.583,0.553,�k�k��,6.6,��
2022/09/22,07:10,0.568,0.811,0.524,1.016,0.718,0.334,0.582,0.553,�k�k��,7.6,��
2022/09/22,07:20,0.569,0.812,0.524,1.015,0.717,0.336,0.583,0.551,�k�k��,6.9,��
2022/09/22,07:30,0.569,0.812,0.524,1.017,0.718,0.335,0.583,0.552,�k�k��,7.2,��
2022/09/22,07:40,0.568,0.811,0.525,1.017,0.718,0.333,0.584,0.551,�k�k��,6.0,��
2022/09/22,07:50,0.569,0.811,0.525,1.016,0.717,0.334,0.584,0.553,�k�k��,6.7,��
2022/09/22,08:00,0.569,0.812,0.525,1.017,0.719,0.333,0.583,0.553,�k�k��,5.8,��
2022/09/22,08:10,0.570,0.812,0.525,1.018,0.718,0.334,0.584,0.552,�k�k��,5.8,��
2022/09/22,08:20,0.569,0.811,0.525,1.018,0.718,0.333,0.583,0.551,�k�k��,6.0,��
2022/09/22,08:30,0.571,0.811,0.525,1.019,0.717,0.334,0.584,0.552,�k�k��,6.3,��
2022/09/22,08:40,0.567,0.811,0.525,1.017,0.719,0.333,0.584,0.553,�k�k��,6.0,��
2022/09/22,08:50,0.568,0.812,0.527,1.018,0.716,0.333,0.584,0.553,�k�k��,5.3,��
2022/09/22,09:00,0.569,0.807,0.524,1.017,0.719,0.332,0.583,0.552,�k�k��,5.2,��
2022/09/22,09:10,0.566,0.810,0.525,1.018,0.719,0.333,0.584,0.552,�k�k��,4.6,��
2022/09/22,09:20,0.568,0.810,0.526,1.018,0.717,0.335,0.584,0.552,�k�k��,4.6,��
2022/09/22,09:30,0.568,0.811,0.525,1.019,0.717,0.333,0.584,0.553,�k�k��,4.9,��
2022/09/22,09:40,0.569,0.811,0.527,1.017,0.718,0.334,0.583,0.551,�k�k��,4.8,��
2022/09/22,09:50,0.568,0.810,0.525,1.018,0.717,0.333,0.583,0.552,�k�k��,4.5,��
2022/09/22,10:00,0.568,0.810,0.524,1.018,0.717,0.331,0.583,0.552,�k�k��,5.6,��
2022/09/22,10:10,0.567,0.810,0.525,1.017,0.716,0.332,0.584,0.552,�k�k��,5.5,��
2022/09/22,10:20,0.567,0.811,0.522,1.017,0.716,0.332,0.583,0.551,�k�k��,5.9,��
2022/09/22,10:30,0.568,0.811,0.523,1.019,0.717,0.332,0.583,0.551,�k�k��,6.2,��
2022/09/22,10:40,0.569,0.809,0.523,1.021,0.716,0.333,0.585,0.551,�k�k��,5.9,��
2022/09/22,10:50,0.567,0.810,0.524,1.018,0.717,0.332,0.583,0.552,�k�k��,5.7,��
2022/09/22,11:00,0.568,0.811,0.524,1.020,0.717,0.333,0.583,0.550,�k�k��,5.7,��
2022/09/22,11:10,0.567,0.810,0.522,1.019,0.719,0.333,0.583,0.549,�k�k��,5.5,��
2022/09/22,11:20,0.565,0.811,0.522,1.020,0.719,0.333,0.584,0.551,�k�k��,4.9,��
2022/09/22,11:30,0.571,0.810,0.524,1.019,0.718,0.331,0.583,0.549,�k�k��,5.3,��
2022/09/22,11:40,0.570,0.810,0.523,1.017,0.718,0.334,0.583,0.550,�k�k��,4.9,��
2022/09/22,11:50,0.569,0.810,0.522,1.019,0.719,0.332,0.582,0.550,�k��,6.3,�L
2022/09/22,12:00,0.567,0.810,0.522,1.021,0.718,0.335,0.584,0.551,�k��,5.3,��
2022/09/22,12:10,0.570,0.811,0.524,1.021,0.720,0.332,0.582,0.551,�k�k��,5.5,��
2022/09/22,12:20,0.571,0.812,0.525,1.019,0.718,0.333,0.583,0.550,�k�k��,5.1,��
2022/09/22,12:30,0.571,0.811,0.525,1.023,0.718,0.333,0.584,0.550,�k�k��,5.4,��
2022/09/22,12:40,0.570,0.811,0.525,1.019,0.719,0.334,0.583,0.551,�k�k��,5.3,��
2022/09/22,12:50,0.570,0.813,0.523,1.020,0.719,0.332,0.584,0.551,�k�k��,5.5,��
2022/09/22,13:00,0.569,0.811,0.525,1.020,0.718,0.333,0.584,0.552,�k�k��,5.9,��
2022/09/22,13:10,0.570,0.810,0.524,1.019,0.717,0.332,0.584,0.549,�k�k��,6.3,��
2022/09/22,13:20,0.570,0.812,0.524,1.022,0.718,0.333,0.583,0.549,�k�k��,5.5,��
2022/09/22,13:30,0.569,0.812,0.525,1.017,0.719,0.333,0.585,0.550,�k�k��,5.3,��
2022/09/22,13:40,0.570,0.812,0.525,1.020,0.719,0.333,0.584,0.551,�k�k��,5.8,��
2022/09/22,13:50,0.569,0.812,0.523,1.021,0.720,0.333,0.583,0.550,�k�k��,6.6,��
2022/09/22,14:00,0.571,0.811,0.523,1.021,0.720,0.333,0.584,0.551,�k�k��,5.7,��
2022/09/22,14:10,0.568,0.812,0.526,1.020,0.717,0.334,0.584,0.550,�k�k��,6.5,��
2022/09/22,14:20,0.568,0.813,0.523,1.021,0.718,0.333,0.583,0.551,�k�k��,5.0,�L
2022/09/22,14:30,0.569,0.813,0.525,1.021,0.719,0.333,0.584,0.551,�k�k��,4.6,�L
2022/09/22,14:40,0.569,0.812,0.523,1.023,0.719,0.334,0.584,0.551,�k�k��,4.5,��
2022/09/22,14:50,0.571,0.812,0.524,1.022,0.720,0.334,0.585,0.552,�k�k��,5.5,��
2022/09/22,15:00,0.572,0.813,0.524,1.020,0.720,0.332,0.585,0.552,�k�k��,5.1,��
2022/09/22,15:10,0.571,0.813,0.524,1.020,0.719,0.334,0.584,0.552,�k�k��,5.1,��
2022/09/22,15:20,0.568,0.812,0.525,1.022,0.720,0.333,0.584,0.551,�k�k��,6.0,��
2022/09/22,15:30,0.569,0.812,0.526,1.021,0.721,0.333,0.584,0.551,�k�k��,5.8,��
2022/09/22,15:40,0.569,0.812,0.523,1.022,0.719,0.335,0.583,0.550,�k�k��,5.8,��
2022/09/22,15:50,0.570,0.813,0.523,1.023,0.719,0.333,0.584,0.552,�k�k��,5.0,��
2022/09/22,16:00,0.571,0.812,0.523,1.020,0.720,0.334,0.584,0.551,�k�k��,6.1,��
2022/09/22,16:10,0.569,0.814,0.525,1.022,0.719,0.334,0.586,0.551,�k�k��,6.9,��
2022/09/22,16:20,0.570,0.813,0.524,1.026,0.719,0.334,0.584,0.552,�k�k��,5.2,��
2022/09/22,16:30,0.570,0.815,0.525,1.023,0.720,0.334,0.584,0.552,�k�k��,6.3,��
2022/09/22,16:40,0.571,0.813,0.525,1.022,0.719,0.334,0.584,0.551,�k�k��,6.8,��
2022/09/22,16:50,0.571,0.814,0.525,1.023,0.719,0.334,0.584,0.553,�k�k��,6.9,��
2022/09/22,17:00,0.570,0.815,0.526,1.024,0.721,0.334,0.584,0.553,�k,6.4,��
2022/09/22,17:10,0.571,0.814,0.525,1.023,0.722,0.335,0.582,0.552,�k�k��,5.7,��
2022/09/22,17:20,0.571,0.813,0.525,1.022,0.720,0.334,0.583,0.552,�k�k��,5.4,��
2022/09/22,17:30,0.570,0.813,0.527,1.024,0.722,0.334,0.583,0.553,�k�k��,4.8,��
2022/09/22,17:40,0.571,0.814,0.527,1.026,0.722,0.335,0.583,0.553,�k�k��,5.2,��
2022/09/22,17:50,0.572,0.815,0.528,1.023,0.721,0.334,0.584,0.552,�k�k��,5.2,��
2022/09/22,18:00,0.571,0.815,0.526,1.024,0.722,0.334,0.583,0.553,�k�k��,5.3,��
2022/09/22,18:10,0.572,0.817,0.526,1.023,0.722,0.335,0.584,0.552,�k�k��,4.7,��
2022/09/22,18:20,0.572,0.816,0.528,1.022,0.721,0.335,0.584,0.554,�k�k��,6.0,�L
2022/09/22,18:30,0.572,0.816,0.527,1.024,0.720,0.336,0.584,0.554,�k�k��,6.9,��
2022/09/22,18:40,0.573,0.818,0.527,1.025,0.723,0.335,0.584,0.554,�k�k��,6.5,��
2022/09/22,18:50,0.574,0.818,0.527,1.022,0.722,0.335,0.585,0.555,�k�k��,6.1,��
2022/09/22,19:00,0.573,0.816,0.529,1.023,0.723,0.336,0.585,0.552,�k�k��,6.7,��
2022/09/22,19:10,0.573,0.817,0.527,1.023,0.721,0.335,0.584,0.555,�k�k��,6.1,��
2022/09/22,19:20,0.573,0.817,0.528,1.024,0.723,0.335,0.584,0.554,�k�k��,5.8,��
2022/09/22,19:30,0.573,0.816,0.529,1.023,0.724,0.335,0.585,0.555,�k�k��,5.3,��
2022/09/22,19:40,0.572,0.818,0.527,1.021,0.723,0.335,0.586,0.552,�k�k��,5.8,��
2022/09/22,19:50,0.572,0.818,0.526,1.021,0.722,0.335,0.583,0.553,�k�k��,5.4,�L
2022/09/22,20:00,0.572,0.815,0.528,1.023,0.724,0.335,0.586,0.554,�k�k��,5.1,��
2022/09/22,20:10,0.573,0.817,0.529,1.025,0.723,0.336,0.584,0.553,�k�k��,5.0,��
2022/09/22,20:20,0.573,0.816,0.527,1.023,0.722,0.334,0.585,0.554,�k��,5.4,��
2022/09/22,20:30,0.574,0.816,0.529,1.023,0.723,0.333,0.584,0.554,�k��,5.6,��
2022/09/22,20:40,0.573,0.816,0.528,1.023,0.724,0.336,0.583,0.553,�k�k��,5.5,�L
2022/09/22,20:50,0.572,0.816,0.527,1.023,0.723,0.336,0.584,0.555,�k�k��,5.4,�L
2022/09/22,21:00,0.573,0.818,0.526,1.026,0.723,0.335,0.585,0.555,�k�k��,5.3,��
2022/09/22,21:10,0.573,0.818,0.527,1.023,0.725,0.335,0.585,0.554,�k�k��,5.5,��
2022/09/22,21:20,0.572,0.816,0.530,1.024,0.723,0.336,0.584,0.555,�k��,5.8,�L
2022/09/22,21:30,0.574,0.818,0.528,1.023,0.723,0.336,0.586,0.555,�k�k��,4.9,�L
2022/09/22,21:40,0.574,0.817,0.528,1.024,0.723,0.335,0.585,0.555,�k��,5.5,�L
2022/09/22,21:50,0.574,0.817,0.527,1.025,0.724,0.336,0.585,0.554,�k��,4.3,�L
2022/09/22,22:00,0.574,0.817,0.529,1.024,0.722,0.336,0.585,0.553,�k��,5.5,�L
2022/09/22,22:10,0.575,0.817,0.528,1.024,0.724,0.335,0.584,0.554,�k��,5.2,�L
2022/09/22,22:20,0.574,0.816,0.528,1.023,0.722,0.335,0.585,0.552,�k��,5.1,�L
2022/09/22,22:30,0.572,0.817,0.527,1.022,0.724,0.335,0.583,0.553,�k��,4.7,�L
2022/09/22,22:40,0.573,0.814,0.527,1.024,0.721,0.337,0.584,0.554,�k�k��,5.7,�L
2022/09/22,22:50,0.571,0.815,0.526,1.022,0.722,0.336,0.584,0.553,�k��,5.0,��
2022/09/22,23:00,0.573,0.812,0.527,1.024,0.721,0.337,0.586,0.553,�k��,4.5,��
2022/09/22,23:10,0.571,0.814,0.527,1.023,0.721,0.335,0.583,0.553,�k��,4.6,��
2022/09/22,23:20,0.571,0.813,0.528,1.024,0.722,0.336,0.585,0.554,�k�k��,5.0,��
2022/09/22,23:30,0.572,0.813,0.526,1.022,0.721,0.336,0.584,0.554,�k�k��,5.1,�L
2022/09/22,23:40,0.572,0.813,0.527,1.023,0.720,0.335,0.587,0.553,�k�k��,5.5,�L
2022/09/22,23:50,0.572,0.813,0.525,1.022,0.720,0.335,0.584,0.553,�k�k��,5.2,�L
